コワル-ムルコス彗星

143P/Kowal-Mrkos (2009)

English version
Home page
Updated on October 19, 2013

---------------------------------------------------------------------

・ プロフィール

・ 写真集

・ 軌道要素

Epoch 2009 June 18.0 TT = JDT 2455000.5
T 2009 June 12.19750 TT                                 MPC
q   2.5381995            (2000.0)            P               Q
n   0.11051270     Peri.  320.76010     -0.89588149     +0.43803242
a   4.3005887      Node   245.36865     -0.38428614     -0.84791957
e   0.4098019      Incl.    4.68992     -0.22298099     -0.29859674
P   8.92
From 369 observations 1984 Apr. 23-2011 Sept. 20, mean residual 0".5.

・ 星図

・ 光度変化

        H = 13.6  G = 0.15

---------------------------------------------------------------------

軌道要素はM.P.E.C. 2012-C24に掲載されたものです。
星図は StellaNavigator Ver.2.0 for Windows (アストロアーツ 編著 / アスキー出版局刊) で作成したものです。
光度グラフはComet for Windowsで作成したものです。

---------------------------------------------------------------------

Copyright(C) Seiichi Yoshida (comet@aerith.net). All rights reserved.